Tracking 19920 objects as of 15-Oct-2019
HD Live streaming from Space Station
objects crossing your sky now

POPACS DEB (SPACER)


POPACS DEB (SPACER) is no longer on orbit


NORAD ID: 39280
Int'l Code: 2013-055P
Perigee: N/A
Apogee: N/A
Inclination: N/A
Period: N/A
Semi major axis: N/A
RCS: N/A
Launch date: September 29, 2013
Source: United States (US)
Launch site: AIR FORCE WESTERN TEST RANGE (AFWTR)
Decay date: 2015-02-15

Note: This is SATELLITE DEBRIS
aabbcc
Your satellite tracking list
Your tracking list is empty




NASA's NSSDC Master Catalog

Two Line Element Set (TLE):
1 39280U 13055R   15046.42575068  .30789804  00000-0  57707-2 0  9996
2 39280 080.8897 122.4763 0060411 007.5143 351.4794 16.26612222 73510
Source of the keplerian elements: AFSPC